Location: Dallas
(32.7833°N, 96.8000°W)
Time: 10:28:09
(UTC-06:00)

Envisat - Visible Passes

Search period start: 24 January 2021 00:00
Search period end: 03 February 2021 00:00
Orbit: 764 x 766 km, 98.1° (Epoch: 23 January)

Date Brightness Start Highest point End Pass type
(mag) Time Alt. Az. Time Alt. Az. Time Alt. Az.
24 Jan 3.4 05:57:27 10° NNE 06:02:31 65° ESE 06:07:31 10° S visible
24 Jan 6.2 18:49:11 10° WSW 18:51:38 13° W 18:54:04 10° WNW visible
25 Jan 5.1 05:21:20 10° NE 05:25:35 26° E 05:29:49 10° SSE visible
25 Jan 5.1 18:10:02 10° SSW 18:14:34 33° W 18:19:08 10° NNW visible
26 Jan 6.3 04:47:43 10° E 04:48:29 10° E 04:49:15 10° E visible
26 Jan 2.9 06:22:50 10° N 06:27:52 67° WNW 06:32:54 10° SSW visible
27 Jan 3.9 05:46:09 10° NNE 05:51:05 49° E 05:55:59 10° S visible
27 Jan 6.0 18:36:45 10° SW 18:40:07 18° W 18:43:31 10° NW visible
28 Jan 5.5 05:10:22 10° NE 05:14:07 20° E 05:17:49 10° SE visible
28 Jan 3.5 06:48:32 10° N 06:53:10 36° WNW 06:57:45 10° SW visible
29 Jan 2.9 06:11:23 10° NNE 06:16:29 88° WNW 06:21:33 10° SSW visible
30 Jan 4.5 05:34:56 10° NNE 05:39:38 38° E 05:44:19 10° SSE visible
30 Jan 5.8 18:24:39 10° SSW 18:28:38 23° W 18:32:39 10° NW visible
31 Jan 5.9 04:59:38 10° ENE 05:02:37 16° E 05:05:35 10° SE visible
31 Jan 3.2 06:36:57 10° N 06:41:48 47° WNW 06:46:38 10° SW visible
01 Feb 3.2 06:00:01 10° NNE 06:05:05 72° ESE 06:10:08 10° S visible
01 Feb 6.4 18:52:17 10° WSW 18:54:14 12° W 18:56:12 10° WNW visible
02 Feb 5.0 05:23:48 10° NE 05:28:11 29° E 05:32:33 10° SSE visible
